Regional Weather Roundup
Issued by NWS

Home | Current Version | Previous Version | Text Only | Print | Product List | Glossary On
Versions: 1 2 3 4 5 6 7 8 9 10 11 12 13 14 15 16 17 18 19 20 21 22 23 24 25 26 27 28 29 30 31 32 33 34 35 36 37 38 39 40 41 42 43 44 45 46 47 48 49 50
000
ASUS43 KLSX 102307
RWRMO

WEATHER SUMMARY FOR MISSOURI
NATIONAL WEATHER SERVICE SPRINGFIELD MO
600 PM CDT WED AUG 10 2022

NOTE: "FAIR" INDICATES FEW OR NO CLOUDS BELOW 12,000 FEET WITH NO
       SIGNIFICANT WEATHER AND/OR OBSTRUCTIONS TO VISIBILITY.
       CURRENT SKY AND/OR WEATHER CONDITIONS ARE NOT AVAILABLE FOR
       CHILLICOTHE AND FARMINGTON.

MOZ001>031-035>038-043-044-053-054-110000-
...NORTHERN AND WESTERN MISSOURI...

CITY           SKY/WX    TMP DP  RH WIND       PRES   REMARKS
KANSAS CTY INT SUNNY     88  57  34 NE9       30.13F
KANSAS C DTWN  SUNNY     87  62  43 E10       30.11F
LEE`S SUMMIT     N/A    N/A N/A N/A MISG      30.13F
ST JOSEPH      SUNNY     85  64  49 N6        30.13F
CHILLICOTHE      N/A     85  64  49 CALM      30.15F
KIRKSVILLE     SUNNY     84  62  47 CALM      30.15F

$$
MOZ066>068-077>081-088>096-101>105-110000-
...SOUTHWEST MISSOURI...

CITY           SKY/WX    TMP DP  RH WIND       PRES   REMARKS
SPRINGFIELD    SUNNY     84  63  49 N12       30.10S
JOPLIN         SUNNY     90  59  35 NE13G21   30.08F
BRANSON        SUNNY     88  57  35 N6        30.10S

$$
MOZ032>034-039>042-045>050-055>058-069>072-110000-
...CENTRAL MISSOURI...

CITY           SKY/WX    TMP DP  RH WIND       PRES   REMARKS
COLUMBIA       SUNNY     85  60  42 NE10      30.13F
JEFFERSON CITY SUNNY     84  60  44 NE7       30.11F
ROLLA            N/A    N/A N/A N/A MISG      30.13F
SEDALIA        SUNNY     85  61  44 NE10      30.13F
WHITEMAN AFB   SUNNY     84  60  44 NE8       30.08F
WARRENSBURG    SUNNY     84  59  42 NE6       30.12F
OSAGE BEACH    SUNNY    N/A N/A N/A NE9         N/A

$$
MOZ051-052-059>065-110000-
...EAST CENTRAL MISSOURI...

CITY           SKY/WX    TMP DP  RH WIND       PRES   REMARKS
ST LOUIS INTL  MOSUNNY   82  60  47 N9        30.12F
SPIRIT OF STL  SUNNY     81  61  50 N8        30.11S
ST CHARLES     SUNNY     81  62  52 N9        30.11F

$$
MOZ072>076-082>087-097>100-106>115-110000-
...SOUTH CENTRAL AND SOUTHEAST MISSOURI...

CITY           SKY/WX    TMP DP  RH WIND       PRES   REMARKS
CAPE GIRARDEAU MOSUNNY   84  70  62 NE10      30.07F
FARMINGTON     MOSUNNY   79  66  64 NE8       30.13R
POPLAR BLUFF   PTSUNNY   83  73  72 E7        30.06S
WEST PLAINS    SUNNY     85  64  49 N7        30.11F

$$



USA.gov is the U.S. government's official web portal to all federal, state and local government web resources and services.